This is the latest recevied weather packets stored in our database for station/object N0QV. If no packets are shown the sender has not sent any weather packets the latest 10 day(s).
| Time | Temp. | Humidity | Pressure | Rain* | Wind** | Luminosity | Snow |
|---|---|---|---|---|---|---|---|
| 1777936345 | 13.33° C | 38% | 1004.9 hPa | 0 mm | - | 111 W/m² | - |
| 1777936041 | 13.89° C | 36% | 1004.7 hPa | 0 mm | - | 171 W/m² | - |
| 1777935740 | 13.89° C | 37% | 1004.8 hPa | 0 mm | - | 163 W/m² | - |
| 1777935438 | 14.44° C | 37% | 1004.6 hPa | 0 mm | - | 167 W/m² | - |
| 1777935134 | 14.44° C | 36% | 1004.4 hPa | 0 mm | - | 178 W/m² | - |
| 1777934831 | 14.44° C | 37% | 1004.7 hPa | 0 mm | - | 192 W/m² | - |
| 1777934529 | 15° C | 36% | 1004.6 hPa | 0 mm | - | 170 W/m² | - |
| 1777934224 | 15° C | 35% | 1004.4 hPa | 0 mm | - | 269 W/m² | - |
| 1777933920 | 15.56° C | 35% | 1003.9 hPa | 0 mm | - | 327 W/m² | - |
| 1777933618 | 15.56° C | 36% | 1004.1 hPa | 0 mm | - | 255 W/m² | - |
| 1777933314 | 15.56° C | 35% | 1003.8 hPa | 0 mm | - | 301 W/m² | - |
| 1777933011 | 16.11° C | 35% | 1003.6 hPa | 0 mm | - | 348 W/m² | - |
| 1777932709 | 16.11° C | 34% | 1003.4 hPa | 0 mm | - | 389 W/m² | - |
| 1777932405 | 16.11° C | 34% | 1003.5 hPa | 0 mm | - | 385 W/m² | - |
| 1777932103 | 16.11° C | 34% | 1003.6 hPa | 0 mm | - | 386 W/m² | - |
| 1777931798 | 15.56° C | 35% | 1003.6 hPa | 0 mm | - | 427 W/m² | - |
| 1777931496 | 16.67° C | 34% | 1003.4 hPa | 0 mm | - | 411 W/m² | - |
| 1777931192 | 16.67° C | 32% | 1003.3 hPa | 0 mm | - | 482 W/m² | - |
| 1777930888 | 16.67° C | 33% | 1003.3 hPa | 0 mm | - | 470 W/m² | - |
| 1777930585 | 16.67° C | 32% | 1003.1 hPa | 0 mm | - | 436 W/m² | - |
| 1777930282 | 16.67° C | 34% | 1003.3 hPa | 0 mm | - | 462 W/m² | - |
| 1777929978 | 17.22° C | 34% | 1003.1 hPa | 0 mm | - | 471 W/m² | - |
| 1777929675 | 16.67° C | 33% | 1003 hPa | 0 mm | - | 535 W/m² | - |
| 1777929372 | 16.67° C | 32% | 1003.1 hPa | 0 mm | - | 511 W/m² | - |
| 1777929069 | 16.67° C | 33% | 1003 hPa | 0 mm | - | 482 W/m² | - |
* Rain latest hour (hover to see other rain measurements)
** Current wind speed in m/s (hover to see current wind gust speed)